Torna al catalogo

STARLINK-36792

AttivoComunicazioniSSO
NORAD 67804·PAYLOAD·🇺🇸 United States

Lanciato Feb 15, 2026 da Vandenberg Space Force Base

Loading…

Prossimi Passaggi (prossime 24 ore)

TLE

AggiornatoSource: CelesTrak SupGP

Epoca: Sep 15, 2026, 04:23 UTC

1 67804C 26032H   26258.18312500 -.00054039  00000+0 -16759-2 0  2581
2 67804  97.2851  84.6032 0001892  91.2804   7.5314 15.33495549    15

Traccia STARLINK-36792 in tempo reale con AllMySat

Download on the App Store